User: anonymous   Login
Location: Buckeye Ditch
(40.9104°N, 122.9517°W)
Time: 06:42:17
(UTC+00:00)
Language:

Cosmos 1939 Rocket - Orbit

View from above orbital plane
View from above orbital plane
View from above satellite
View from above satellite

Ground track
Ground track

The orbit data is extracted from the following two-line orbital elements,

1 19046U 88032B   24174.16025837  .00004106  00000-0  25328-3 0  9995
2 19046  97.4487 155.8004 0030307 239.8700 119.9525 15.10101424957659
Epoch (UTC): 22 June 2024 03:50:46
Eccentricity: 0.0030307
inclination: 97.4487°
perigee height: 515 km
apogee height: 557 km
right ascension of ascending node: 155.8004°
argument of perigee: 239.8700°
revolutions per day: 15.10101424
mean anomaly at epoch: 119.9525°
orbit number at epoch: 95765

The dashed part of the orbit path shows where the satellite is in the earth's shadow,  

DLR